Corpus Christi, TX

11:50 PM CDT on May 29, 2017 (GMT -0500)
Corpus Christi International

Weather History for KCRP - March, 2014

Change the Weather History Date:

Sunday, March 30, 2014

  Actual Average Record
Temperature  
Mean Temperature 67 °F 69 °F  
Max Temperature 79 °F 79 °F 102 °F (1989)
Min Temperature 55 °F 59 °F 36 °F (1987)
Degree Days  
Heating Degree Days 0 1  
Month to date heating degree days 132 80  
Since 1 July heating degree days 1131 880  
Cooling Degree Days 2 5  
Month to date cooling degree days 76 110  
Year to date cooling degree days 153 186  
Growing Degree Days 17 (Base 50)    
Moisture  
Dew Point 57 °F    
Average Humidity 66    
Maximum Humidity 93    
Minimum Humidity 39    
Precipitation  
Precipitation 0.00 in 0.04 in 0.53 in (1965)
Month to date precipitation 1.65 1.84  
Year to date precipitation 2.56 5.31  
Snow  
Snow 0.00 in - - ()
Month to date snowfall 0.0  
Since 1 July snowfall T  
Snow Depth 0.00 in    
Sea Level Pressure  
Sea Level Pressure 30.13 in    
Wind  
Wind Speed 12 mph (SE)    
Max Wind Speed 24 mph    
Max Gust Speed 33 mph    
Visibility 8 miles    
Events Fog    
T = Trace of Precipitation, MM = Missing Value Source: NWS Daily Summary

Daily Weather History Graph

Daily Weather History Graph

Search for Another Location

Airport or City:

Trip Planner

Search our weather history database for the weather conditions in past years. The results will help you decide how hot, cold, wet, or windy it might be!

Date:

Astronomy

Mar. 30, 2014 Rise Set
Actual Time 7:22 AM CDT 7:46 PM CDT
Civil Twilight 6:59 AM CDT 8:10 PM CDT
Nautical Twilight 6:31 AM CDT 8:37 PM CDT
Astronomical Twilight 6:03 AM CDT 9:05 PM CDT
Moon 7:09 AM CDT 7:57 PM CDT
Length of Visible Light 13h 11m
Length of Day
12h 24m
Waning Crescent, 0% of the Moon is Illuminated
Mar 30
Waning Crescent
Mar 30
New
Apr 7
First Quarter
Apr 15
Full
Apr 22
Last Quarter

Hourly Weather History & Observations

Time (CDT) Temp. Dew Point Humidity Pressure Visibility Wind Dir Wind Speed Gust Speed Precip Events Conditions
12:51 AM 59.0 °F 55.0 °F 87% 30.19 in 10.0 mi SE 4.6 mph - N/A   Overcast
1:51 AM 59.0 °F 55.0 °F 87% 30.19 in 10.0 mi ESE 5.8 mph - N/A   Overcast
2:51 AM 60.1 °F 55.9 °F 86% 30.18 in 10.0 mi SSE 4.6 mph - N/A   Overcast
3:51 AM 61.0 °F 57.9 °F 90% 30.16 in 10.0 mi ESE 3.5 mph - N/A   Overcast
4:51 AM 60.1 °F 57.0 °F 90% 30.15 in 9.0 mi Calm Calm - N/A   Overcast
5:51 AM 61.0 °F 57.9 °F 90% 30.15 in 9.0 mi East 4.6 mph - N/A   Overcast
6:51 AM 59.0 °F 55.9 °F 90% 30.18 in 9.0 mi ESE 3.5 mph - N/A Fog Shallow Fog
7:11 AM 55.9 °F 52.0 °F 87% 30.19 in 1.2 mi Calm Calm - N/A   Mostly Cloudy
7:17 AM 55.9 °F 53.1 °F 90% 30.19 in 0.5 mi Calm Calm - N/A Fog Fog
7:31 AM 55.9 °F 54.0 °F 93% 30.19 in 0.2 mi Calm Calm - N/A Fog Fog
7:48 AM 55.4 °F 53.6 °F 94% 30.19 in 0.5 mi Calm Calm - N/A Fog Fog
7:51 AM 55.0 °F 53.1 °F 93% 30.19 in 0.5 mi Calm Calm - N/A Fog Fog
8:27 AM 62.1 °F 60.1 °F 93% 30.20 in 5.0 mi Calm Calm - N/A   Scattered Clouds
8:51 AM 64.0 °F 61.0 °F 90% 30.21 in 7.0 mi East 6.9 mph - N/A   Mostly Cloudy
9:51 AM 72.0 °F 61.0 °F 68% 30.20 in 10.0 mi ESE 11.5 mph - N/A   Mostly Cloudy
10:51 AM 73.9 °F 57.0 °F 55% 30.21 in 10.0 mi SE 13.8 mph 25.3 mph N/A   Mostly Cloudy
11:51 AM 75.0 °F 57.0 °F 53% 30.20 in 10.0 mi SE 17.3 mph 28.8 mph N/A   Mostly Cloudy
12:51 PM 77.0 °F 57.0 °F 50% 30.18 in 10.0 mi SE 16.1 mph - N/A   Scattered Clouds
1:51 PM 78.1 °F 55.9 °F 46% 30.15 in 10.0 mi ESE 17.3 mph 25.3 mph N/A   Partly Cloudy
2:51 PM 78.1 °F 52.0 °F 40% 30.12 in 10.0 mi ESE 20.7 mph 28.8 mph N/A   Partly Cloudy
3:51 PM 77.0 °F 53.1 °F 43% 30.09 in 10.0 mi ESE 24.2 mph 33.4 mph N/A   Partly Cloudy
4:51 PM 75.9 °F 54.0 °F 46% 30.06 in 10.0 mi SE 19.6 mph 29.9 mph N/A   Partly Cloudy
5:51 PM 73.0 °F 57.0 °F 57% 30.05 in 10.0 mi SSE 16.1 mph 26.5 mph N/A   Partly Cloudy
6:51 PM 71.1 °F 57.9 °F 63% 30.04 in 10.0 mi SE 21.9 mph 29.9 mph N/A   Mostly Cloudy
7:02 PM 71.1 °F 57.9 °F 63% 30.04 in 10.0 mi ESE 18.4 mph - N/A   Mostly Cloudy
7:44 PM 68.0 °F 57.0 °F 68% 30.04 in 10.0 mi ESE 15.0 mph 23.0 mph N/A   Scattered Clouds
7:51 PM 68.0 °F 57.9 °F 70% 30.04 in 10.0 mi ESE 17.3 mph 24.2 mph N/A   Scattered Clouds
8:21 PM 68.0 °F 57.9 °F 70% 30.05 in 10.0 mi ESE 17.3 mph - N/A   Mostly Cloudy
8:51 PM 68.0 °F 59.0 °F 73% 30.06 in 10.0 mi ESE 16.1 mph 21.9 mph N/A   Mostly Cloudy
9:04 PM 68.0 °F 59.0 °F 73% 30.06 in 10.0 mi ESE 12.7 mph - N/A   Scattered Clouds
9:51 PM 68.0 °F 60.1 °F 76% 30.05 in 10.0 mi SE 15.0 mph - N/A   Scattered Clouds
10:16 PM 66.9 °F 60.1 °F 79% 30.05 in 10.0 mi SE 12.7 mph - N/A   Mostly Cloudy
10:33 PM 66.9 °F 60.1 °F 79% 30.06 in 10.0 mi SE 12.7 mph - N/A   Scattered Clouds
10:51 PM 66.9 °F 60.1 °F 79% 30.06 in 10.0 mi SE 12.7 mph - N/A   Scattered Clouds
11:51 PM 66.9 °F 61.0 °F 81% 30.06 in 10.0 mi SE 10.4 mph - N/A   Mostly Cloudy